TimePDT,TemperatureF,Dew PointF,Humidity,Sea Level PressureIn,VisibilityMPH,Wind Direction,Wind SpeedMPH,Gust SpeedMPH,PrecipitationIn,Events,Conditions,WindDirDegrees,DateUTC
12:53 AM,32.0,18.0,56,30.15,10.0,South,4.6,-,N/A,,Clear,190,2013-10-27 07:53:00
1:53 AM,30.0,17.1,59,30.15,10.0,Calm,Calm,-,N/A,,Clear,0,2013-10-27 08:53:00
2:53 AM,28.9,18.0,64,30.13,10.0,Calm,Calm,-,N/A,,Clear,0,2013-10-27 09:53:00
3:53 AM,28.0,17.1,63,30.10,10.0,South,3.5,-,N/A,,Clear,190,2013-10-27 10:53:00
4:53 AM,28.0,17.1,63,30.09,10.0,South,3.5,-,N/A,,Clear,190,2013-10-27 11:53:00
5:53 AM,28.0,16.0,61,30.10,10.0,Calm,Calm,-,N/A,,Clear,0,2013-10-27 12:53:00
6:53 AM,27.0,16.0,63,30.09,10.0,SSW,3.5,-,N/A,,Clear,200,2013-10-27 13:53:00
7:53 AM,26.1,16.0,66,30.09,10.0,South,4.6,-,N/A,,Clear,190,2013-10-27 14:53:00
8:53 AM,35.1,18.0,50,30.06,10.0,South,3.5,-,N/A,,Clear,180,2013-10-27 15:53:00
9:53 AM,50.0,19.0,29,29.99,10.0,Calm,Calm,-,N/A,,Clear,0,2013-10-27 16:53:00
10:53 AM,61.0,12.9,15,29.93,10.0,South,15.0,21.9,N/A,,Clear,180,2013-10-27 17:53:00
11:53 AM,61.0,10.9,14,29.90,10.0,SSW,16.1,28.8,N/A,,Clear,200,2013-10-27 18:53:00
12:53 PM,61.0,14.0,16,29.85,10.0,WSW,9.2,18.4,N/A,,Clear,240,2013-10-27 19:53:00
1:53 PM,61.0,16.0,17,29.79,10.0,SSW,16.1,32.2,N/A,,Clear,210,2013-10-27 20:53:00
2:53 PM,60.1,17.1,19,29.76,10.0,SW,11.5,26.5,N/A,,Clear,220,2013-10-27 21:53:00
3:53 PM,57.0,19.0,23,29.73,10.0,SSW,9.2,21.9,N/A,,Clear,200,2013-10-27 22:53:00
4:53 PM,53.1,17.1,24,29.68,10.0,SSW,26.5,39.1,N/A,,Clear,200,2013-10-27 23:53:00
5:53 PM,51.1,21.0,31,29.61,10.0,SSW,17.3,35.7,N/A,,Clear,200,2013-10-28 00:53:00
6:53 PM,48.9,21.0,33,29.50,10.0,SSW,17.3,39.1,N/A,,Clear,210,2013-10-28 01:53:00
7:53 PM,48.0,25.0,41,29.56,10.0,SW,13.8,24.2,N/A,,Mostly Cloudy,230,2013-10-28 02:53:00
8:53 PM,41.0,27.0,57,29.52,10.0,SSW,17.3,32.2,N/A,,Mostly Cloudy,210,2013-10-28 03:53:00
9:53 PM,42.1,24.1,49,29.46,10.0,SW,10.4,24.2,N/A,,Clear,220,2013-10-28 04:53:00
10:45 PM,39.2,26.6,61,29.56,10.0,SSW,11.5,32.2,N/A,,Overcast,210,2013-10-28 05:45:00
10:53 PM,39.0,26.1,60,29.43,10.0,SSW,10.4,19.6,N/A,,Overcast,200,2013-10-28 05:53:00
11:10 PM,37.4,26.6,65,29.55,8.0,SSW,10.4,23.0,0.00,Snow,Light Snow,210,2013-10-28 06:10:00
11:18 PM,37.4,26.6,65,29.55,2.5,SW,3.5,-,0.00,Snow,Light Snow,230,2013-10-28 06:18:00
11:27 PM,35.6,28.4,75,29.54,1.5,Variable,5.8,17.3,0.02,Snow,Light Snow,0,2013-10-28 06:27:00
11:37 PM,37.4,28.4,70,29.53,3.0,SSW,8.1,16.1,0.02,Snow,Light Snow,210,2013-10-28 06:37:00
11:45 PM,37.4,26.6,65,29.53,5.0,SSW,12.7,23.0,0.02,Snow,Light Snow,200,2013-10-28 06:45:00
11:53 PM,37.0,27.0,67,29.41,7.0,SSW,12.7,26.5,0.03,Snow,Light Snow,200,2013-10-28 06:53:00